COSMOS 482 DESCENT CRAFT is no longer on orbit COSMOS 482 DESCENT CRAFT is classified as:
1 6073U 72023E 25130.02495443 .08088373 12542-4 65849-4 0 9993 2 6073 51.9455 241.9030 0035390 103.6551 63.6433 16.48653575751319